Weather History for KFAY - January, 2013

Change the Weather History Date:

Friday, January 18, 2013

  Actual Average Record
Temperature  
Mean Temperature 42 °F 44 °F  
Max Temperature 51 °F 54 °F 80 °F (1937)
Min Temperature 32 °F 33 °F 8 °F (1977)
Degree Days  
Heating Degree Days 23 21  
Month to date heating degree days 253 395  
Since 1 July heating degree days 1256 1454  
Cooling Degree Days 0 0  
Month to date cooling degree days 3 0  
Year to date cooling degree days 3 0  
Moisture  
Dew Point 29 °F    
Average Humidity 61    
Maximum Humidity 92    
Minimum Humidity 29    
Precipitation  
Precipitation 0.02 in 0.10 in 1.55 in (1915)
Month to date precipitation 1.42 1.73  
Year to date precipitation 1.42 1.73  
Sea Level Pressure  
Sea Level Pressure 30.35 in    
Wind  
Wind Speed 8 mph (North)    
Max Wind Speed 18 mph    
Max Gust Speed 24 mph    
Visibility 10 miles    
Events Rain    
T = Trace of Precipitation, MM = Missing Value Source: NWS Daily Summary

Daily Weather History Graph

Daily Weather History Graph

Search for Another Location

Airport or City:

Trip Planner

Search our weather history database for the weather conditions in past years. The results will help you decide how hot, cold, wet, or windy it might be!

Date:

Astronomy

Jan. 18, 2013 Rise Set
Actual Time 7:22 AM EST 5:30 PM EST
Civil Twilight 6:54 AM EST 5:57 PM EST
Nautical Twilight 6:23 AM EST 6:28 PM EST
Astronomical Twilight 5:53 AM EST 6:58 PM EST
Moon 11:18 AM EST (1/18) 12:00 AM EST (1/18)
Length of Visible Light 11h 03m
Length of Day
10h 08m
Waxing Crescent, 47% of the Moon is Illuminated
Jan 18
Waxing Crescent
Jan 18
First Quarter
Jan 26
Full
Feb 3
Last Quarter
Feb 10
New

Hourly Weather History & Observations

Time (EST) Temp. Windchill Dew Point Humidity Pressure Visibility Wind Dir Wind Speed Gust Speed Precip Events Conditions
12:33 AM 37.4 °F 28.5 °F 35.6 °F 93% 30.14 in 10.0 mi North 15.0 mph 21.9 mph 0.01 in Rain Light Rain
12:53 AM 37.0 °F 30.4 °F 35.1 °F 93% 30.13 in 10.0 mi North 9.2 mph - 0.02 in   Overcast
1:20 AM 37.4 °F 30.8 °F 35.6 °F 93% 30.14 in 10.0 mi North 9.2 mph - 0.00 in   Overcast
1:53 AM 37.0 °F 28.9 °F 35.1 °F 93% 30.17 in 10.0 mi North 12.7 mph - 0.00 in   Mostly Cloudy
2:06 AM 37.4 °F 29.3 °F 35.6 °F 93% 30.19 in 10.0 mi North 12.7 mph - N/A   Overcast
2:28 AM 37.4 °F 29.3 °F 35.6 °F 93% 30.22 in 10.0 mi NNW 12.7 mph 21.9 mph N/A   Overcast
2:43 AM 37.4 °F 30.3 °F 35.6 °F 93% 30.23 in 10.0 mi NNW 10.4 mph - N/A   Overcast
2:53 AM 37.0 °F 29.3 °F 35.1 °F 93% 30.22 in 10.0 mi NNW 11.5 mph - N/A   Overcast
3:53 AM 37.0 °F 32.4 °F 35.1 °F 93% 30.25 in 10.0 mi NNW 5.8 mph - N/A   Overcast
4:35 AM 35.6 °F 30.7 °F 33.8 °F 93% 30.26 in 10.0 mi WNW 5.8 mph - N/A   Scattered Clouds
4:53 AM 36.0 °F 31.1 °F 34.0 °F 93% 30.26 in 10.0 mi NW 5.8 mph - N/A   Partly Cloudy
5:53 AM 35.1 °F 28.6 °F 33.1 °F 92% 30.28 in 10.0 mi NW 8.1 mph - N/A   Clear
6:53 AM 34.0 °F 29.8 °F 30.9 °F 89% 30.32 in 10.0 mi NNW 4.6 mph - N/A   Clear
7:53 AM 36.0 °F 29.0 °F 28.9 °F 76% 30.36 in 10.0 mi North 9.2 mph - N/A   Clear
8:53 AM 37.9 °F 31.5 °F 30.9 °F 76% 30.41 in 10.0 mi North 9.2 mph - N/A   Clear
9:53 AM 42.1 °F 35.7 °F 30.0 °F 62% 30.45 in 10.0 mi NNW 11.5 mph 16.1 mph N/A   Clear
10:53 AM 46.0 °F 40.2 °F 27.0 °F 47% 30.45 in 10.0 mi North 12.7 mph - N/A   Clear
11:53 AM 48.0 °F - 23.0 °F 37% 30.44 in 10.0 mi NNW 13.8 mph - N/A   Clear
12:53 PM 48.9 °F - 25.0 °F 39% 30.43 in 10.0 mi North 9.2 mph - N/A   Clear
1:53 PM 50.0 °F - 21.9 °F 33% 30.43 in 10.0 mi North 11.5 mph - N/A   Clear
2:53 PM 50.0 °F - 19.9 °F 31% 30.43 in 10.0 mi NNE 9.2 mph - N/A   Clear
3:53 PM 50.0 °F - 21.0 °F 32% 30.44 in 10.0 mi NNW 6.9 mph - N/A   Clear
4:53 PM 48.0 °F - 21.9 °F 36% 30.46 in 10.0 mi NNE 8.1 mph - N/A   Clear
5:53 PM 42.1 °F 40.2 °F 23.0 °F 47% 30.48 in 10.0 mi NNE 3.5 mph - N/A   Clear
6:53 PM 41.0 °F - 24.1 °F 51% 30.51 in 10.0 mi Calm Calm - N/A   Clear
7:53 PM 37.0 °F 34.5 °F 26.1 °F 65% 30.51 in 10.0 mi North 3.5 mph - N/A   Clear
8:53 PM 36.0 °F 32.1 °F 24.1 °F 62% 30.52 in 10.0 mi North 4.6 mph - N/A   Clear
9:53 PM 36.0 °F 33.3 °F 25.0 °F 64% 30.52 in 10.0 mi North 3.5 mph - N/A   Clear
10:53 PM 33.1 °F 28.7 °F 27.0 °F 78% 30.50 in 10.0 mi North 4.6 mph - N/A   Clear
11:53 PM 34.0 °F 31.0 °F 25.0 °F 70% 30.49 in 10.0 mi North 3.5 mph - N/A   Clear